Bennington, VT

3:11 AM EST on December 08, 2019 (GMT -0500)
Morse State

Weather History for KDDH - September, 2019

Change the Weather History Date:

Saturday, September 14, 2019

  Actual Average Record
Temperature  
Mean Temperature 62 °F 60 °F  
Max Temperature 67 °F 71 °F 86 °F (2005)
Min Temperature 56 °F 48 °F 37 °F (2001)
Degree Days  
Heating Degree Days 3 6  
Month to date heating degree days 73 61  
Since 1 July heating degree days 108 133  
Cooling Degree Days 0 1  
Month to date cooling degree days 12 18  
Year to date cooling degree days 363 306  
Growing Degree Days 12 (Base 50)    
Moisture  
Dew Point 54 °F    
Average Humidity 75    
Maximum Humidity 87    
Minimum Humidity 62    
Precipitation  
Precipitation 0.00 in 0.12 in 0.59 in (2006)
Month to date precipitation 1.53 1.51  
Year to date precipitation 29.00 29.05  
Sea Level Pressure  
Sea Level Pressure 30.23 in    
Wind  
Wind Speed 7 mph (South)    
Max Wind Speed 16 mph    
Max Gust Speed 24 mph    
Visibility 10 miles    
Events      
T = Trace of Precipitation, MM = Missing Value Source: NWS Daily Summary

Daily Weather History Graph

Daily Weather History Graph

Search for Another Location

Airport or City:

Astronomy

Sep. 14, 2019 Rise Set
Actual Time 6:31 AM EDT 7:05 PM EDT
Civil Twilight 6:02 AM EDT 7:33 PM EDT
Nautical Twilight 5:29 AM EDT 8:07 PM EDT
Astronomical Twilight 4:54 AM EDT 8:41 PM EDT
Moon 7:45 PM EDT (9/14) 6:41 AM EDT (9/14)
Length of Visible Light 13h 30m
Length of Day
12h 33m
Full, 100% of the Moon is Illuminated
Sep 14
Full
Sep 21
Last Quarter
Sep 28
New
Oct 5
First Quarter
Oct 13
Full

Hourly Weather History & Observations

Time (EDT) Temp. Dew Point Humidity Pressure Visibility Wind Dir Wind Speed Gust Speed Precip Events Conditions
12:54 AM 57.0 °F 44.1 °F 62% 30.37 in 10.0 mi Variable 6.9 mph - N/A   Overcast
1:54 AM 57.0 °F 45.0 °F 64% 30.36 in 10.0 mi Variable 5.8 mph - N/A   Overcast
2:54 AM 57.0 °F 45.0 °F 64% 30.33 in 10.0 mi ESE 6.9 mph - N/A   Overcast
3:54 AM 57.0 °F 46.0 °F 67% 30.32 in 10.0 mi Variable 6.9 mph - N/A   Overcast
4:54 AM 57.0 °F 46.9 °F 69% 30.30 in 10.0 mi SE 11.5 mph - N/A   Overcast
5:54 AM 57.0 °F 48.0 °F 72% 30.30 in 10.0 mi South 5.8 mph - N/A   Overcast
6:30 AM 57.9 °F 48.9 °F 72% 30.32 in 10.0 mi South 8.1 mph - N/A   Overcast
6:54 AM 57.9 °F 48.9 °F 72% 30.30 in 10.0 mi SSE 9.2 mph - N/A   Overcast
7:54 AM 59.0 °F 51.1 °F 75% 30.29 in 10.0 mi Variable 4.6 mph - N/A   Overcast
8:54 AM 61.0 °F 52.0 °F 72% 30.27 in 10.0 mi South 11.5 mph - N/A   Overcast
9:54 AM 63.0 °F 53.1 °F 70% 30.26 in 10.0 mi South 8.1 mph - N/A   Overcast
10:54 AM 63.0 °F 54.0 °F 72% 30.24 in 10.0 mi Variable 6.9 mph 17.3 mph N/A   Overcast
11:54 AM 64.0 °F 55.0 °F 73% 30.23 in 10.0 mi Variable 4.6 mph - N/A   Overcast
12:54 PM 64.0 °F 55.9 °F 75% 30.22 in 10.0 mi Variable 6.9 mph - N/A   Overcast
1:54 PM 64.9 °F 55.9 °F 73% 30.20 in 10.0 mi South 4.6 mph 16.1 mph N/A   Overcast
2:54 PM 66.0 °F 57.0 °F 73% 30.18 in 10.0 mi South 5.8 mph 19.6 mph N/A   Overcast
3:54 PM 66.0 °F 57.9 °F 75% 30.17 in 10.0 mi South 11.5 mph 18.4 mph N/A   Overcast
4:21 PM 66.0 °F 57.9 °F 75% 30.16 in 10.0 mi SSW 15.0 mph 19.6 mph N/A   Overcast
4:54 PM 66.0 °F 57.9 °F 75% 30.16 in 10.0 mi SW 5.8 mph - N/A   Overcast
5:54 PM 66.9 °F 59.0 °F 76% 30.15 in 10.0 mi SSW 9.2 mph - N/A   Overcast
6:54 PM 66.9 °F 59.0 °F 76% 30.15 in 10.0 mi SSW 5.8 mph - N/A   Overcast
7:54 PM 66.9 °F 59.0 °F 76% 30.15 in 10.0 mi SSW 9.2 mph - N/A   Overcast
8:54 PM 66.0 °F 60.1 °F 81% 30.15 in 10.0 mi SSW 6.9 mph - N/A   Mostly Cloudy
10:54 PM 64.9 °F 60.1 °F 84% 30.15 in 10.0 mi Variable 5.8 mph - N/A   Overcast
11:24 PM 66.0 °F 60.1 °F 81% 30.15 in 10.0 mi SW 6.9 mph - N/A   Overcast
11:54 PM 66.0 °F 60.1 °F 81% 30.15 in 10.0 mi SW 6.9 mph - N/A   Overcast